When you browse on this site, cookies collect data to enhance your experience and personalize the content and advertising you see.
Visit our Privacy Policy to learn more. By continuing to use the site, you agree to this use of cookies and data.
  • In Hungary
  • List of Countries
  • For 7 days
  • Water Temperature
  • Satellite Maps
  • Weather Map
  • News
  • Weather Widgets
  • user-avatar
    Login

    Hourly Weather Chiplun

    Today, 24 January, Thursday

    Time Temperature Precipitation Wind Pressure Humidity
    00:00 +22°C° 0 mm 1 mps 760 mmHg 82%
    01:00 +21°C° 0 mm 1 mps 760 mmHg 81%
    02:00 +21°C° 0 mm 1 mps 760 mmHg 80%
    03:00 +21°C° 0 mm 1 mps 760 mmHg 80%
    04:00 +21°C° 0 mm 1 mps 760 mmHg 79%
    05:00 +21°C° 0 mm 1 mps 760 mmHg 78%
    06:00 +22°C° 0 mm 1 mps 760 mmHg 73%
    07:00 +23°C° 0 mm 1 mps 761 mmHg 68%
    08:00 +24°C° 0 mm 1 mps 761 mmHg 63%
    09:00 +28°C° 0 mm 1 mps 761 mmHg 52%
    10:00 +29°C° 0 mm 0 mps 761 mmHg 41%
    11:00 +33°C° 0 mm 0 mps 761 mmHg 30%
    12:00 +35°C° 0 mm 1 mps 760 mmHg 30%
    13:00 +36°C° 0 mm 2 mps 759 mmHg 30%
    14:00 +35°C° 0 mm 3 mps 758 mmHg 29%
    15:00 +34°C° 0 mm 3 mps 758 mmHg 35%
    16:00 +31°C° 0 mm 3 mps 758 mmHg 40%
    17:00 +30°C° 0 mm 3 mps 758 mmHg 45%
    18:00 +28°C° 0 mm 2 mps 758 mmHg 53%
    19:00 +25°C° 0 mm 2 mps 759 mmHg 61%
    20:00 +23°C° 0 mm 1 mps 759 mmHg 69%
    21:00 +23°C° 0 mm 1 mps 760 mmHg 70%
    22:00 +22°C° 0 mm 1 mps 760 mmHg 71%
    23:00 +22°C° 0 mm 1 mps 760 mmHg 72%

    Tomorrow, 25 January, Friday

    Time Temperature Precipitation Wind Pressure Humidity
    00:00 +21°C° 0 mm 1 mps 760 mmHg 71%
    01:00 +21°C° 0 mm 1 mps 759 mmHg 71%
    02:00 +20°C° 0 mm 1 mps 759 mmHg 70%
    03:00 +20°C° 0 mm 1 mps 759 mmHg 69%
    04:00 +20°C° 0 mm 1 mps 759 mmHg 67%
    05:00 +19°C° 0 mm 1 mps 759 mmHg 65%
    06:00 +20°C° 0 mm 1 mps 759 mmHg 60%
    07:00 +21°C° 0 mm 1 mps 760 mmHg 55%
    08:00 +22°C° 0 mm 1 mps 760 mmHg 50%
    09:00 +26°C° 0 mm 1 mps 760 mmHg 40%
    10:00 +29°C° 0 mm 1 mps 760 mmHg 30%
    11:00 +33°C° 0 mm 1 mps 760 mmHg 20%
    12:00 +34°C° 0 mm 2 mps 759 mmHg 18%
    13:00 +34°C° 0 mm 2 mps 759 mmHg 16%
    14:00 +35°C° 0 mm 3 mps 758 mmHg 14%
    15:00 +33°C° 0 mm 3 mps 758 mmHg 17%
    16:00 +31°C° 0 mm 3 mps 757 mmHg 20%
    17:00 +30°C° 0 mm 3 mps 757 mmHg 23%
    18:00 +27°C° 0 mm 2 mps 758 mmHg 28%
    19:00 +25°C° 0 mm 2 mps 759 mmHg 34%
    20:00 +22°C° 0 mm 1 mps 759 mmHg 39%
    21:00 +22°C° 0 mm 1 mps 760 mmHg 38%
    22:00 +21°C° 0 mm 1 mps 760 mmHg 38%
    23:00 +21°C° 0 mm 1 mps 760 mmHg 37%

    Day after tomorrow, 26 January, Saturday

    Time Temperature Precipitation Wind Pressure Humidity
    00:00 +21°C° 0 mm 1 mps 759 mmHg 35%
    01:00 +20°C° 0 mm 1 mps 759 mmHg 33%
    02:00 +20°C° 0 mm 1 mps 759 mmHg 32%
    03:00 +20°C° 0 mm 1 mps 759 mmHg 30%
    04:00 +20°C° 0 mm 1 mps 759 mmHg 29%
    05:00 +19°C° 0 mm 2 mps 759 mmHg 27%
    06:00 +20°C° 0 mm 2 mps 759 mmHg 32%
    07:00 +21°C° 0 mm 2 mps 760 mmHg 37%
    08:00 +23°C° 0 mm 2 mps 761 mmHg 41%
    09:00 +26°C° 0 mm 2 mps 761 mmHg 38%
    10:00 +29°C° 0 mm 2 mps 761 mmHg 35%
    11:00 +33°C° 0 mm 3 mps 761 mmHg 31%
    12:00 +34°C° 0 mm 2 mps 760 mmHg 28%
    13:00 +35°C° 0 mm 2 mps 759 mmHg 25%
    14:00 +36°C° 0 mm 1 mps 758 mmHg 22%
    15:00 +34°C° 0 mm 1 mps 758 mmHg 25%
    16:00 +34°C° 0 mm 2 mps 758 mmHg 27%
    17:00 +32°C° 0 mm 2 mps 757 mmHg 30%
    18:00 +29°C° 0 mm 2 mps 758 mmHg 36%
    19:00 +27°C° 0 mm 1 mps 759 mmHg 42%
    20:00 +25°C° 0 mm 1 mps 760 mmHg 47%
    21:00 +24°C° 0 mm 1 mps 760 mmHg 46%
    22:00 +24°C° 0 mm 1 mps 760 mmHg 45%
    23:00 +24°C° 0 mm 2 mps 760 mmHg 43%

    27 January, Sunday

    Time Temperature Precipitation Wind Pressure Humidity
    00:00 +24°C° 0 mm 2 mps 760 mmHg 42%
    01:00 +23°C° 0 mm 2 mps 760 mmHg 42%
    02:00 +23°C° 0 mm 2 mps 759 mmHg 41%
    03:00 +23°C° 0 mm 2 mps 759 mmHg 38%
    04:00 +22°C° 0 mm 3 mps 759 mmHg 36%
    05:00 +22°C° 0 mm 3 mps 760 mmHg 33%
    06:00 +24°C° 0 mm 3 mps 760 mmHg 34%
    07:00 +25°C° 0 mm 3 mps 761 mmHg 34%
    08:00 +25°C° 0 mm 4 mps 762 mmHg 34%
    09:00 +28°C° 0 mm 4 mps 762 mmHg 34%
    10:00 +30°C° 0 mm 4 mps 762 mmHg 34%
    11:00 +33°C° 0 mm 4 mps 762 mmHg 34%
    12:00 +34°C° 0 mm 3 mps 761 mmHg 32%
    13:00 +35°C° 0 mm 2 mps 760 mmHg 30%
    14:00 +36°C° 0 mm 2 mps 759 mmHg 28%
    15:00 +35°C° 0 mm 2 mps 759 mmHg 31%
    16:00 +34°C° 0 mm 2 mps 759 mmHg 33%
    17:00 +33°C° 0 mm 1 mps 759 mmHg 36%
    18:00 +31°C° 0 mm 1 mps 759 mmHg 40%
    19:00 +29°C° 0 mm 1 mps 760 mmHg 44%
    20:00 +27°C° 0 mm 1 mps 760 mmHg 48%
    21:00 +27°C° 0 mm 2 mps 761 mmHg 48%
    22:00 +26°C° 0 mm 2 mps 761 mmHg 48%
    23:00 +26°C° 0 mm 2 mps 761 mmHg 48%

    28 January, Monday

    Time Temperature Precipitation Wind Pressure Humidity
    00:00 +26°C° 0 mm 3 mps 761 mmHg 43%
    01:00 +26°C° 0 mm 3 mps 761 mmHg 37%
    02:00 +25°C° 0 mm 3 mps 760 mmHg 32%
    03:00 +25°C° 0 mm 4 mps 761 mmHg 31%
    04:00 +25°C° 0 mm 4 mps 761 mmHg 30%
    05:00 +25°C° 0 mm 4 mps 761 mmHg 29%
    06:00 +25°C° 0 mm 4 mps 762 mmHg 29%
    07:00 +26°C° 0 mm 4 mps 762 mmHg 30%
    08:00 +26°C° 0 mm 4 mps 763 mmHg 31%
    09:00 +28°C° 0 mm 4 mps 763 mmHg 29%
    10:00 +30°C° 0 mm 4 mps 763 mmHg 28%
    11:00 +33°C° 0 mm 4 mps 763 mmHg 27%
    12:00 +34°C° 0 mm 3 mps 762 mmHg 26%
    13:00 +35°C° 0 mm 3 mps 761 mmHg 24%
    14:00 +36°C° 0 mm 2 mps 760 mmHg 23%
    15:00 +35°C° 0 mm 2 mps 760 mmHg 24%
    16:00 +34°C° 0 mm 2 mps 760 mmHg 26%
    17:00 +34°C° 0 mm 2 mps 760 mmHg 27%
    18:00 +31°C° 0 mm 2 mps 761 mmHg 30%
    19:00 +28°C° 0 mm 2 mps 761 mmHg 33%
    20:00 +26°C° 0 mm 2 mps 762 mmHg 36%
    21:00 +26°C° 0 mm 2 mps 762 mmHg 34%
    22:00 +25°C° 0 mm 2 mps 762 mmHg 32%
    23:00 +25°C° 0 mm 2 mps 762 mmHg 29%

    29 January, Tuesday

    Time Temperature Precipitation Wind Pressure Humidity
    00:00 +24°C° 0 mm 2 mps 761 mmHg 27%
    01:00 +24°C° 0 mm 2 mps 761 mmHg 25%
    02:00 +24°C° 0 mm 3 mps 761 mmHg 23%
    03:00 +22°C° 0 mm 3 mps 761 mmHg 22%
    04:00 +22°C° 0 mm 3 mps 761 mmHg 21%
    05:00 +21°C° 0 mm 3 mps 761 mmHg 20%
    06:00 +22°C° 0 mm 3 mps 762 mmHg 21%
    07:00 +24°C° 0 mm 3 mps 762 mmHg 21%
    08:00 +24°C° 0 mm 3 mps 763 mmHg 22%
    09:00 +27°C° 0 mm 3 mps 763 mmHg 20%
    10:00 +29°C° 0 mm 3 mps 763 mmHg 18%
    11:00 +33°C° 0 mm 3 mps 762 mmHg 16%
    12:00 +34°C° 0 mm 2 mps 762 mmHg 16%
    13:00 +35°C° 0 mm 2 mps 761 mmHg 15%
    14:00 +36°C° 0 mm 1 mps 760 mmHg 14%
    15:00 +34°C° 0 mm 1 mps 760 mmHg 16%
    16:00 +33°C° 0 mm 1 mps 759 mmHg 19%
    17:00 +32°C° 0 mm 1 mps 759 mmHg 21%
    18:00 +29°C° 0 mm 1 mps 760 mmHg 24%
    19:00 +27°C° 0 mm 1 mps 761 mmHg 28%
    20:00 +24°C° 0 mm 1 mps 761 mmHg 31%
    21:00 +24°C° 0 mm 1 mps 761 mmHg 29%
    22:00 +23°C° 0 mm 2 mps 761 mmHg 27%
    23:00 +23°C° 0 mm 2 mps 761 mmHg 25%
    Show more